Regional Weather Roundup
Issued by NWS

Home | Current Version | Previous Version | Graphics & Text | Print | Product List | Glossary On
Versions: 1 2 3 4 5 6 7 8 9 10 11 12 13 14 15 16 17 18 19 20 21 22 23 24 25 26 27 28 29 30 31 32 33 34 35 36 37 38 39 40 41 42 43 44 45 46 47 48 49 50
000
ASUS45 KCYS 290110
RWRWY

WYOMING REGIONAL WEATHER ROUNDUP
NATIONAL WEATHER SERVICE CHEYENNE WY
700 PM MDT TUE MAR 28 2017

NOTE:  "FAIR" INDICATES FEW OR NO CLOUDS BELOW 12,000 FEET
WITH NO SIGNIFICANT WEATHER AND/OR OBSTRUCTIONS TO VISIBILITY.

WYZ001-290200-
YELLOWSTONE NATIONAL PARK

CITY           SKY/WX    TMP DP  RH WIND       PRES   REMARKS
LK YELLOWSTONE   N/A     36  13  38 W7        30.16R WCI  30
W YELLOWSTONE  NOT AVBL

$$
WYZ002>013-054>058-071-098>099-290200-
NORTHERN WYOMING

CITY           SKY/WX    TMP DP  RH WIND       PRES   REMARKS
JACKSON        CLEAR     41  21  45 W9        30.14R
CODY           FAIR      47  27  45 N7        30.09S
GREYBULL       FAIR      53  28  38 W5        30.06S
WORLAND        FAIR      48  39  71 SE13      30.08S
SHERIDAN       FAIR      45  35  68 CALM      30.12R
BUFFALO        CLOUDY    42  34  73 N8        30.13R
GILLETTE       CLOUDY    45  37  73 NW14      30.10R
HULETT         CLOUDY    43  41  93 CALM      30.10R
NEWCASTLE      CLOUDY    43  41  93 S7G17     30.10S

$$
WYZ014>020-022>026-101>103-290200-
CENTRAL WYOMING

CITY           SKY/WX    TMP DP  RH WIND       PRES   REMARKS
BIG PINEY      FAIR      43  23  45 N16       30.11R
PINEDALE       FAIR      41  21  45 NW14G21   30.11S
DUBOIS         FAIR      41  18  38 NW12      30.09S
LANDER         FAIR      44  32  62 SW6       30.08S
RIVERTON       FAIR      45  30  55 E9        30.10R
CASPER         CLOUDY    41  34  76 N15       30.11R
DOUGLAS        LGT RAIN  41  38  89 N12       30.09R

$$
WYZ021-027>030-104>119-290200-
SOUTHERN WYOMING

CITY           SKY/WX    TMP DP  RH WIND       PRES   REMARKS
EVANSTON       FAIR      40  22  48 N18       30.14S WCI  31
KEMMERER         N/A     37  25  60 W16G23    30.13R WCI  28
ROCK SPRINGS   LGT RAIN  38  32  79 CALM      30.13R
DIXON            N/A     42  31  64 N18G26    30.09R
RAWLINS        MOCLDY    38  29  70 N17       30.11R WCI  28
SARATOGA       CLOUDY    36  36 100 NW15G21   30.09R WCI  26
LARAMIE        LGT SNOW  33  33 100 N13       30.04R FOG     WCI  24
CHEYENNE       LGT RAIN  38  35  89 NE16G24   30.01R WCI  29
TORRINGTON     LGT RAIN  41  38  89 NE14      30.05R
PINE BLUFFS    LGT RAIN  39  37  93 E12       30.01R WCI  32

$$



USA.gov is the U.S. government's official web portal to all federal, state and local government web resources and services.